Regional Weather Roundup
Issued by NWS State College, PA

Home | Current Version | Previous Version | Text Only | Print | Product List | Glossary Off
Versions: 1 2 3 4 5 6 7 8 9 10 11 12 13 14 15 16 17 18 19 20 21 22 23 24 25 26 27 28 29 30 31 32 33 34 35 36 37 38 39 40 41 42 43 44 45 46 47 48 49 50

000
ASUS41 KCTP 210203
RWRCTP

REGIONAL WEATHER ROUNDUP
NATIONAL WEATHER SERVICE STATE COLLEGE PA
900 PM EST THU NOV 20 2014

Note: "fair" indicates few or no clouds below 12,000 feet with no
significant weather and/or obstructions to visibility.

* = STATION THAT DOES NOT REPORT PRECIPITATION /E.G. RAIN...SNOW...ETC/
    THUNDER OR FOG.

PAZ002>004-007>009-013>016-020>023-029>032-210300-
WESTERN PENNSYLVANIA

CITY           SKY/WX    TMP DP  RH WIND       PRES   REMARKS
ERIE           LGT SNOW  25  18  74 W21G30    30.02R WCI  11
MEADVILLE      LGT SNOW  20  15  81 W15G24    30.00S VSB 3/4 WCI   6
FRANKLIN*      PTCLDY    19   9  63 SW13G20   30.02R WCI   7
NEW CASTLE       N/A     22  11  62 SW10      30.09R WCI  11
BEAVER COUNTY  FLURRIES  23  14  68 W9G20     30.08R WCI  13
BUTLER*        CLOUDY    21  16  79 W7        30.09R WCI  13
PITTSBURGH INT FLURRIES  23  15  71 W6        30.09R
PITTSBURGH     PTCLDY    24  10  55 W14G23    30.08R WCI  12
INDIANA*       CLOUDY    23  10  58 W10G17    30.08R WCI  12
LATROBE        CLEAR     25  10  54 SW13      30.10R WCI  13
WASHINGTON CO* CLOUDY    25  10  54 W17G26    30.11S WCI  11
$$

PAZ004>006-010>012-017>019-024>028-033>037-041-042-045-046-049>053-210300-
CENTRAL PENNSYLVANIA

CITY           SKY/WX    TMP DP  RH WIND       PRES   REMARKS
BRADFORD       CLOUDY    18  10  71 SW10G21   29.91S WCI   6
DUBOIS         LGT SNOW  20  14  77 W16       29.97S WCI   6
CLEARFIELD     PTCLDY    22  10  60 W10G20    30.00S WCI  11
JOHNSTOWN      CLOUDY    20   8  60 W17G25    29.98R WCI   5
ALTOONA        PTCLDY    24  10  55 W13       30.02R WCI  12
STATE COLLEGE  MOCLDY    25   9  50 W15G21    30.02R WCI  12
WILLIAMSPORT   CLEAR     26   9  48 W9        30.02S
SELINSGROVE    CLEAR     27  10  49 SW3       30.05S
FT INDIANTOWN  CLEAR     29   8  40 SW8       30.05R
CAPITAL CITY   CLEAR     31  10  41 NW6       30.06R
HARRISBURG     CLEAR     29  11  47 NW9       30.05R
YORK           CLEAR     28  12  51 NW5       30.05R
$$

PAZ038>040-043-044-047-048-054-055-060>062-067>071-210300-
EASTERN PENNSYLVANIA

CITY           SKY/WX    TMP DP  RH WIND       PRES   REMARKS
SCRANTON       CLEAR     26   6  42 W18       29.98R WCI  13
MOUNT POCONO   CLEAR     22   6  50 W16G25    29.90R WCI   8
ALLENTOWN      CLEAR     30   7  37 W16G26    30.02R
QUAKERTOWN*    CLEAR     30  10  43 NW12G21   30.02R
READING        CLEAR     31   8  38 NW15      30.05R
LANCASTER      CLEAR     30  10  43 NW14      30.04R
COATESVILLE    CLEAR     32  10  40 NW17      30.01R
POTTSTOWN      CLEAR     31  10  41 NW15      30.03R
BLUE BELL      CLEAR     34  14  44 NW12G20   29.99R
DOYLESTOWN     CLEAR     30  11  45 NW12G24   30.00R
WILLOW GROVE   NOT AVBL
NORTH PHILA    CLEAR     36  10  34 NW7       30.03R
PHILADELPHIA   PTCLDY    38  10  31 NW10      30.03R
$$


USA.gov is the U.S. government's official web portal to all federal, state and local government web resources and services.